Regional Weather Roundup
Issued by NWS

Home | Current Version | Previous Version | Graphics & Text | Print | Product List | Glossary On
Versions: 1 2 3 4 5 6 7 8 9 10 11 12 13 14 15 16 17 18 19 20 21 22 23 24 25 26 27 28 29 30 31 32 33 34 35 36 37 38 39 40 41 42 43 44 45 46 47 48 49 50
000
ASUS43 KLMK 271510
RWRKY
KENTUCKY REGIONAL WEATHER ROUNDUP
NATIONAL WEATHER SERVICE LOUISVILLE KY
1100 AM EDT SAT AUG 27 2016

NOTE "FAIR" INDICATES FEW OR NO CLOUDS BELOW 12,000 FEET
WITH NO SIGNIFICANT WEATHER AND/OR OBSTRUCTIONS TO VISIBILITY.

KYZ001>023-026-027-061>063-070>075-271600-
WESTERN AND SOUTH CENTRAL KENTUCKY

CITY           SKY/WX    TMP DP  RH WIND       PRES   REMARKS
PADUCAH        CLOUDY    77  71  82 CALM      30.10S
HENDERSON      MOSUNNY   77  70  78 N3        30.11S
OWENSBORO      SUNNY     85  72  65 CALM      30.12R HX  91
HOPKINSVILLE   SUNNY     82  73  74 S2        30.11R
BOWLING GREEN  CLOUDY    86  75  69 VRB6      30.11S HX  95
GLASGOW        SUNNY     85  73  67 CALM      30.12S HX  91
$$

KYZ024-025-028>034-038-045-046-053-271600-
NORTH CENTRAL KENTUCKY

CITY           SKY/WX    TMP DP  RH WIND       PRES   REMARKS
LOUISVILLE/SDF MOSUNNY   86  72  62 VRB3      30.09S HX  92
LOUISVILLE/LOU SUNNY     85  72  65 CALM      30.11R HX  91
FORT KNOX      MOSUNNY   83  73  70 VRB2      30.10R
$$

KYZ035>037-039>044-047>052-055>060-089>105-271600-
NORTHEAST KENTUCKY

CITY           SKY/WX    TMP DP  RH WIND       PRES   REMARKS
LEXINGTON      SUNNY     86  71  60 SE5       30.14S HX  91
COVINGTON      MOSUNNY   85  74  69 SE7       30.13S HX  92
FRANKFORT      SUNNY     86  71  60 CALM      30.12S HX  91
$$

KYZ054-064>069-076>088-106>120-271600-
SOUTHEAST KENTUCKY

CITY           SKY/WX    TMP DP  RH WIND       PRES   REMARKS
JACKSON        SUNNY     84  72  67 CALM      30.18S
LONDON         SUNNY     84  70  62 SE3       30.16S
SOMERSET       SUNNY     82  70  65 S5        30.15S
MIDDLESBORO    SUNNY     84  73  68 E3        30.17F HX  90
MONTICELLO     SUNNY    N/A N/A N/A VRB7      30.16S
$$





USA.gov is the U.S. government's official web portal to all federal, state and local government web resources and services.